カタログに戻る

SL-12 DEB

LostHEO
NORAD 29489·DEBRIS·🇷🇺 Russia

打ち上げ May 31, 1989 から Baikonur Cosmodrome

Loading…

次のパス (今後24時間)

TLE

古いSource: Space-Track

元期: May 19, 2024, 11:13 UTC

1 29489U 89039DZ  24140.46755207 -.00050617  00000-0 -49733+1 0  9995
2 29489  61.5467 239.1219 5037798  73.5347 334.4944  4.48152827  3913

AllMySatでSL-12 DEBをリアルタイム追跡

Download on the App Store